Year,Month,Day,Hour,Minute,Value (Times are PST for temperature in C)
2012,07,04,00,00,9.00
2012,07,04,00,01,8.90
2012,07,04,00,02,8.90
2012,07,04,00,03,8.80
2012,07,04,00,04,8.70
2012,07,04,00,05,8.60
2012,07,04,00,06,8.60
2012,07,04,00,07,8.50
2012,07,04,00,08,8.40
2012,07,04,00,09,8.40
2012,07,04,00,10,8.30
2012,07,04,00,11,8.30
2012,07,04,00,12,8.20
2012,07,04,00,13,8.10
2012,07,04,00,14,8.10
2012,07,04,00,15,8.10
2012,07,04,00,16,8.00
2012,07,04,00,17,8.00
2012,07,04,00,18,8.00
2012,07,04,00,19,7.90
2012,07,04,00,20,7.90
2012,07,04,00,21,7.90
2012,07,04,00,22,7.80
2012,07,04,00,23,7.80
2012,07,04,00,24,7.80
2012,07,04,00,25,7.80
2012,07,04,00,26,7.80
2012,07,04,00,27,7.70
2012,07,04,00,28,7.70
2012,07,04,00,29,7.70
2012,07,04,00,30,7.70
2012,07,04,00,31,7.60
2012,07,04,00,32,7.60
2012,07,04,00,33,7.60
2012,07,04,00,34,7.60
2012,07,04,00,35,7.60
2012,07,04,00,36,7.50
2012,07,04,00,37,7.50
2012,07,04,00,38,7.50
2012,07,04,00,39,7.50
2012,07,04,00,40,7.40
2012,07,04,00,41,7.40
2012,07,04,00,42,7.40
2012,07,04,00,43,7.40
2012,07,04,00,44,7.40
2012,07,04,00,45,7.40
2012,07,04,00,46,7.40
2012,07,04,00,47,7.30
2012,07,04,00,48,7.30
2012,07,04,00,49,7.30
2012,07,04,00,50,7.30
2012,07,04,00,51,7.30
2012,07,04,00,52,7.30
2012,07,04,00,53,7.30
2012,07,04,00,54,7.30
2012,07,04,00,55,7.30
2012,07,04,00,56,7.30
2012,07,04,00,57,7.30
2012,07,04,00,58,7.20
2012,07,04,00,59,7.30
2012,07,04,01,00,7.30
2012,07,04,01,01,7.30
2012,07,04,01,02,7.30
2012,07,04,01,03,7.30
2012,07,04,01,04,7.30
2012,07,04,01,05,7.30
2012,07,04,01,06,7.30
2012,07,04,01,07,7.30
2012,07,04,01,08,7.30
2012,07,04,01,09,7.20
2012,07,04,01,10,7.20
2012,07,04,01,11,7.20
2012,07,04,01,12,7.20
2012,07,04,01,13,7.30
2012,07,04,01,14,7.30
2012,07,04,01,15,7.30
2012,07,04,01,16,7.20
2012,07,04,01,17,7.20
2012,07,04,01,18,7.20
2012,07,04,01,19,7.20
2012,07,04,01,20,7.20
2012,07,04,01,21,7.20
2012,07,04,01,22,7.20
2012,07,04,01,23,7.20
2012,07,04,01,24,7.20
2012,07,04,01,25,7.20
2012,07,04,01,26,7.10
2012,07,04,01,27,7.10
2012,07,04,01,28,7.10
2012,07,04,01,29,7.10
2012,07,04,01,30,7.00
2012,07,04,01,31,7.00
2012,07,04,01,32,7.00
2012,07,04,01,33,6.90
2012,07,04,01,34,6.90
2012,07,04,01,35,7.00
2012,07,04,01,36,7.00
2012,07,04,01,37,7.10
2012,07,04,01,38,7.20
2012,07,04,01,39,7.20
2012,07,04,01,40,7.20
2012,07,04,01,41,7.20
2012,07,04,01,42,7.20
2012,07,04,01,43,7.20
2012,07,04,01,44,7.20
2012,07,04,01,45,7.20
2012,07,04,01,46,7.20
2012,07,04,01,47,7.20
2012,07,04,01,48,7.20
2012,07,04,01,49,7.20
2012,07,04,01,50,7.20
2012,07,04,01,51,7.20
2012,07,04,01,52,7.20
2012,07,04,01,53,7.20
2012,07,04,01,54,7.20
2012,07,04,01,55,7.20
2012,07,04,01,56,7.20
2012,07,04,01,57,7.20
2012,07,04,01,58,7.20
2012,07,04,01,59,7.10
2012,07,04,02,00,7.10
2012,07,04,02,01,7.10
2012,07,04,02,02,7.10
2012,07,04,02,03,7.00
2012,07,04,02,04,7.00
2012,07,04,02,05,7.00
2012,07,04,02,06,7.00
2012,07,04,02,07,7.00
2012,07,04,02,08,7.00
2012,07,04,02,09,6.90
2012,07,04,02,10,6.90
2012,07,04,02,11,6.90
2012,07,04,02,12,6.90
2012,07,04,02,13,6.90
2012,07,04,02,14,6.90
2012,07,04,02,15,6.80
2012,07,04,02,16,6.80
2012,07,04,02,17,6.80
2012,07,04,02,18,6.80
2012,07,04,02,19,6.80
2012,07,04,02,20,6.80
2012,07,04,02,21,6.80
2012,07,04,02,22,6.80
2012,07,04,02,23,6.80
2012,07,04,02,24,6.80
2012,07,04,02,25,6.80
2012,07,04,02,26,6.80
2012,07,04,02,27,6.80
2012,07,04,02,28,6.80
2012,07,04,02,29,6.70
2012,07,04,02,30,6.70
2012,07,04,02,31,6.70
2012,07,04,02,32,6.70
2012,07,04,02,33,6.70
2012,07,04,02,34,6.70
2012,07,04,02,35,6.70
2012,07,04,02,36,6.60
2012,07,04,02,37,6.60
2012,07,04,02,38,6.60
2012,07,04,02,39,6.60
2012,07,04,02,40,6.60
2012,07,04,02,41,6.50
2012,07,04,02,42,6.50
2012,07,04,02,43,6.50
2012,07,04,02,44,6.40
2012,07,04,02,45,6.40
2012,07,04,02,46,6.40
2012,07,04,02,47,6.40
2012,07,04,02,48,6.40
2012,07,04,02,49,6.40
2012,07,04,02,50,6.40
2012,07,04,02,51,6.40
2012,07,04,02,52,6.40
2012,07,04,02,53,6.30
2012,07,04,02,54,6.30
2012,07,04,02,55,6.30
2012,07,04,02,56,6.30
2012,07,04,02,57,6.30
2012,07,04,02,58,6.30
2012,07,04,02,59,6.20
2012,07,04,03,00,6.20
2012,07,04,03,01,6.20
2012,07,04,03,02,6.20
2012,07,04,03,03,6.20
2012,07,04,03,04,6.20
2012,07,04,03,05,6.20
2012,07,04,03,06,6.20
2012,07,04,03,07,6.20
2012,07,04,03,08,6.20
2012,07,04,03,09,6.20
2012,07,04,03,10,6.20
2012,07,04,03,11,6.20
2012,07,04,03,12,6.20
2012,07,04,03,13,6.20
2012,07,04,03,14,6.20
2012,07,04,03,15,6.20
2012,07,04,03,16,6.30
2012,07,04,03,17,6.30
2012,07,04,03,18,6.30
2012,07,04,03,19,6.30
2012,07,04,03,20,6.30
2012,07,04,03,21,6.30
2012,07,04,03,22,6.30
2012,07,04,03,23,6.30
2012,07,04,03,24,6.30
2012,07,04,03,25,6.30
2012,07,04,03,26,6.30
2012,07,04,03,27,6.30
2012,07,04,03,28,6.30
2012,07,04,03,29,6.30
2012,07,04,03,30,6.30
2012,07,04,03,31,6.30
2012,07,04,03,32,6.30
2012,07,04,03,33,6.30
2012,07,04,03,34,6.30
2012,07,04,03,35,6.30
2012,07,04,03,36,6.30
2012,07,04,03,37,6.30
2012,07,04,03,38,6.30
2012,07,04,03,39,6.30
2012,07,04,03,40,6.30
2012,07,04,03,41,6.30
2012,07,04,03,42,6.30
2012,07,04,03,43,6.20
2012,07,04,03,44,6.20
2012,07,04,03,45,6.20
2012,07,04,03,46,6.20
2012,07,04,03,47,6.20
2012,07,04,03,48,6.20
2012,07,04,03,49,6.20
2012,07,04,03,50,6.20
2012,07,04,03,51,6.20
2012,07,04,03,52,6.20
2012,07,04,03,53,6.20
2012,07,04,03,54,6.20
2012,07,04,03,55,6.10
2012,07,04,03,56,6.10
2012,07,04,03,57,6.10
2012,07,04,03,58,6.10
2012,07,04,03,59,6.10
2012,07,04,04,00,6.10
2012,07,04,04,01,6.10
2012,07,04,04,02,6.10
2012,07,04,04,03,6.10
2012,07,04,04,04,6.10
2012,07,04,04,05,6.10
2012,07,04,04,06,6.10
2012,07,04,04,07,6.00
2012,07,04,04,08,6.00
2012,07,04,04,09,6.00
2012,07,04,04,10,5.90
2012,07,04,04,11,5.90
2012,07,04,04,12,5.90
2012,07,04,04,13,5.90
2012,07,04,04,14,5.90
2012,07,04,04,15,5.90
2012,07,04,04,16,5.90
2012,07,04,04,17,5.90
2012,07,04,04,18,5.80
2012,07,04,04,19,5.80
2012,07,04,04,20,5.80
2012,07,04,04,21,5.80
2012,07,04,04,22,5.80
2012,07,04,04,23,5.80
2012,07,04,04,24,5.80
2012,07,04,04,25,5.80
2012,07,04,04,26,5.80
2012,07,04,04,27,5.80
2012,07,04,04,28,5.80
2012,07,04,04,29,5.80
2012,07,04,04,30,5.80
2012,07,04,04,31,5.70
2012,07,04,04,32,5.70
2012,07,04,04,33,5.70
2012,07,04,04,34,5.70
2012,07,04,04,35,5.70
2012,07,04,04,36,5.70
2012,07,04,04,37,5.70
2012,07,04,04,38,5.70
2012,07,04,04,39,5.70
2012,07,04,04,40,5.70
2012,07,04,04,41,5.70
2012,07,04,04,42,5.70
2012,07,04,04,43,5.60
2012,07,04,04,44,5.60
2012,07,04,04,45,5.60
2012,07,04,04,46,5.60
2012,07,04,04,47,5.60
2012,07,04,04,48,5.60
2012,07,04,04,49,5.60
2012,07,04,04,50,5.50
2012,07,04,04,51,5.50
2012,07,04,04,52,5.50
2012,07,04,04,53,5.50
2012,07,04,04,54,5.60
2012,07,04,04,55,5.60
2012,07,04,04,56,5.60
2012,07,04,04,57,5.60
2012,07,04,04,58,5.60
2012,07,04,04,59,5.60
2012,07,04,05,00,5.60
2012,07,04,05,01,5.60
2012,07,04,05,02,5.60
2012,07,04,05,03,5.50
2012,07,04,05,04,5.50
2012,07,04,05,05,5.50
2012,07,04,05,06,5.50
2012,07,04,05,07,5.50
2012,07,04,05,08,5.50
2012,07,04,05,09,5.50
2012,07,04,05,10,5.50
2012,07,04,05,11,5.40
2012,07,04,05,12,5.40
2012,07,04,05,13,5.40
2012,07,04,05,14,5.40
2012,07,04,05,15,5.40
2012,07,04,05,16,5.40
2012,07,04,05,17,5.40
2012,07,04,05,18,5.40
2012,07,04,05,19,5.40
2012,07,04,05,20,5.40
2012,07,04,05,21,5.40
2012,07,04,05,22,5.40
2012,07,04,05,23,5.40
2012,07,04,05,24,5.40
2012,07,04,05,25,5.40
2012,07,04,05,26,5.40
2012,07,04,05,27,5.40
2012,07,04,05,28,5.40
2012,07,04,05,29,5.40
2012,07,04,05,30,5.40
2012,07,04,05,31,5.40
2012,07,04,05,32,5.40
2012,07,04,05,33,5.40
2012,07,04,05,34,5.40
2012,07,04,05,35,5.40
2012,07,04,05,36,5.40
2012,07,04,05,37,5.40
2012,07,04,05,38,5.40
2012,07,04,05,39,5.40
2012,07,04,05,40,5.40
2012,07,04,05,41,5.40
2012,07,04,05,42,5.40
2012,07,04,05,43,5.40
2012,07,04,05,44,5.40
2012,07,04,05,45,5.40
2012,07,04,05,46,5.40
2012,07,04,05,47,5.40
2012,07,04,05,48,5.40
2012,07,04,05,49,5.40
2012,07,04,05,50,5.40
2012,07,04,05,51,5.40
2012,07,04,05,52,5.50
2012,07,04,05,53,5.50
2012,07,04,05,54,5.50
2012,07,04,05,55,5.50
2012,07,04,05,56,5.50
2012,07,04,05,57,5.50
2012,07,04,05,58,5.50
2012,07,04,05,59,5.60
2012,07,04,06,00,5.60
2012,07,04,06,01,5.60
2012,07,04,06,02,5.60
2012,07,04,06,03,5.60
2012,07,04,06,04,5.60
2012,07,04,06,05,5.60
2012,07,04,06,06,5.60
2012,07,04,06,07,5.60
2012,07,04,06,08,5.60
2012,07,04,06,09,5.60
2012,07,04,06,10,5.60
2012,07,04,06,11,5.70
2012,07,04,06,12,5.70
2012,07,04,06,13,5.70
2012,07,04,06,14,5.70
2012,07,04,06,15,5.70
2012,07,04,06,16,5.70
2012,07,04,06,17,5.70
2012,07,04,06,18,5.70
2012,07,04,06,19,5.70
2012,07,04,06,20,5.70
2012,07,04,06,21,5.70
2012,07,04,06,22,5.80
2012,07,04,06,23,5.80
2012,07,04,06,24,5.80
2012,07,04,06,25,5.80
2012,07,04,06,26,5.80
2012,07,04,06,27,5.80
2012,07,04,06,28,5.80
2012,07,04,06,29,5.80
2012,07,04,06,30,5.80
2012,07,04,06,31,5.90
2012,07,04,06,32,5.90
2012,07,04,06,33,5.90
2012,07,04,06,34,5.90
2012,07,04,06,35,5.90
2012,07,04,06,36,5.90
2012,07,04,06,37,5.90
2012,07,04,06,38,6.00
2012,07,04,06,39,6.00
2012,07,04,06,40,6.00
2012,07,04,06,41,6.10
2012,07,04,06,42,6.10
2012,07,04,06,43,6.10
2012,07,04,06,44,6.10
2012,07,04,06,45,6.10
2012,07,04,06,46,6.10
2012,07,04,06,47,6.20
2012,07,04,06,48,6.20
2012,07,04,06,49,6.20
2012,07,04,06,50,6.30
2012,07,04,06,51,6.30
2012,07,04,06,52,6.30
2012,07,04,06,53,6.30
2012,07,04,06,54,6.30
2012,07,04,06,55,6.30
2012,07,04,06,56,6.40
2012,07,04,06,57,6.40
2012,07,04,06,58,6.40
2012,07,04,06,59,6.40
2012,07,04,07,00,6.40
2012,07,04,07,01,6.50
2012,07,04,07,02,6.50
2012,07,04,07,03,6.50
2012,07,04,07,04,6.50
2012,07,04,07,05,6.50
2012,07,04,07,06,6.60
2012,07,04,07,07,6.60
2012,07,04,07,08,6.60
2012,07,04,07,09,6.60
2012,07,04,07,10,6.60
2012,07,04,07,11,6.60
2012,07,04,07,12,6.70
2012,07,04,07,13,6.70
2012,07,04,07,14,6.70
2012,07,04,07,15,6.70
2012,07,04,07,16,6.70
2012,07,04,07,17,6.70
2012,07,04,07,18,6.70
2012,07,04,07,19,6.70
2012,07,04,07,20,6.80
2012,07,04,07,21,6.80
2012,07,04,07,22,6.80
2012,07,04,07,23,6.80
2012,07,04,07,24,6.80
2012,07,04,07,25,6.90
2012,07,04,07,26,6.90
2012,07,04,07,27,6.90
2012,07,04,07,28,7.00
2012,07,04,07,29,7.10
2012,07,04,07,30,7.20
2012,07,04,07,31,7.20
2012,07,04,07,32,7.30
2012,07,04,07,33,7.40
2012,07,04,07,34,7.50
2012,07,04,07,35,7.50
2012,07,04,07,36,7.70
2012,07,04,07,37,7.80
2012,07,04,07,38,7.90
2012,07,04,07,39,8.00
2012,07,04,07,40,8.10
2012,07,04,07,41,8.20
2012,07,04,07,42,8.30
2012,07,04,07,43,8.40
2012,07,04,07,44,8.50
2012,07,04,07,45,8.60
2012,07,04,07,46,8.70
2012,07,04,07,47,8.80
2012,07,04,07,48,8.90
2012,07,04,07,49,9.10
2012,07,04,07,50,9.20
2012,07,04,07,51,9.30
2012,07,04,07,52,9.50
2012,07,04,07,53,9.60
2012,07,04,07,54,9.80
2012,07,04,07,55,9.90
2012,07,04,07,56,10.00
2012,07,04,07,57,10.20
2012,07,04,07,58,10.30
2012,07,04,07,59,10.40
2012,07,04,08,00,10.50
2012,07,04,08,01,10.60
2012,07,04,08,02,10.70
2012,07,04,08,03,10.80
2012,07,04,08,04,10.90
2012,07,04,08,05,11.00
2012,07,04,08,06,11.10
2012,07,04,08,07,11.20
2012,07,04,08,08,11.30
2012,07,04,08,09,11.40
2012,07,04,08,10,11.50
2012,07,04,08,11,11.60
2012,07,04,08,12,11.70
2012,07,04,08,13,11.80
2012,07,04,08,14,11.90
2012,07,04,08,15,11.90
2012,07,04,08,16,12.00
2012,07,04,08,17,12.10
2012,07,04,08,18,12.20
2012,07,04,08,19,12.20
2012,07,04,08,20,12.30
2012,07,04,08,21,12.40
2012,07,04,08,22,12.50
2012,07,04,08,23,12.60
2012,07,04,08,24,12.60
2012,07,04,08,25,12.70
2012,07,04,08,26,12.70
2012,07,04,08,27,12.70
2012,07,04,08,28,12.70
2012,07,04,08,29,12.80
2012,07,04,08,30,12.80
2012,07,04,08,31,12.80
2012,07,04,08,32,12.80
2012,07,04,08,33,12.90
2012,07,04,08,34,12.90
2012,07,04,08,35,12.90
2012,07,04,08,36,13.00
2012,07,04,08,37,13.00
2012,07,04,08,38,13.00
2012,07,04,08,39,13.00
2012,07,04,08,40,13.10
2012,07,04,08,41,13.10
2012,07,04,08,42,13.10
2012,07,04,08,43,13.20
2012,07,04,08,44,13.30
2012,07,04,08,45,13.30
2012,07,04,08,46,13.30
2012,07,04,08,47,13.30
2012,07,04,08,48,13.20
2012,07,04,08,49,13.30
2012,07,04,08,50,13.20
2012,07,04,08,51,13.20
2012,07,04,08,52,13.20
2012,07,04,08,53,13.20
2012,07,04,08,54,13.20
2012,07,04,08,55,13.20
2012,07,04,08,56,13.20
2012,07,04,08,57,13.30
2012,07,04,08,58,13.30
2012,07,04,08,59,13.30
2012,07,04,09,00,13.30
2012,07,04,09,01,13.30
2012,07,04,09,02,13.30
2012,07,04,09,03,13.40
2012,07,04,09,04,13.50
2012,07,04,09,05,13.50
2012,07,04,09,06,13.60
2012,07,04,09,07,13.60
2012,07,04,09,08,13.70
2012,07,04,09,09,13.70
2012,07,04,09,10,13.70
2012,07,04,09,11,13.70
2012,07,04,09,12,13.70
2012,07,04,09,13,13.70
2012,07,04,09,14,13.80
2012,07,04,09,15,13.80
2012,07,04,09,16,13.90
2012,07,04,09,17,14.00
2012,07,04,09,18,14.10
2012,07,04,09,19,14.20
2012,07,04,09,20,14.20
2012,07,04,09,21,14.30
2012,07,04,09,22,14.20
2012,07,04,09,23,14.20
2012,07,04,09,24,14.20
2012,07,04,09,25,14.20
2012,07,04,09,26,14.20
2012,07,04,09,27,14.20
2012,07,04,09,28,14.20
2012,07,04,09,29,14.20
2012,07,04,09,30,14.20
2012,07,04,09,31,14.20
2012,07,04,09,32,14.20
2012,07,04,09,33,14.20
2012,07,04,09,34,14.30
2012,07,04,09,35,14.30
2012,07,04,09,36,14.40
2012,07,04,09,37,14.40
2012,07,04,09,38,14.50
2012,07,04,09,39,14.60
2012,07,04,09,40,14.70
2012,07,04,09,41,14.70
2012,07,04,09,42,14.70
2012,07,04,09,43,14.80
2012,07,04,09,44,14.90
2012,07,04,09,45,15.00
2012,07,04,09,46,15.00
2012,07,04,09,47,15.00
2012,07,04,09,48,15.00
2012,07,04,09,49,15.00
2012,07,04,09,50,14.90
2012,07,04,09,51,14.80
2012,07,04,09,52,14.80
2012,07,04,09,53,14.80
2012,07,04,09,54,14.70
2012,07,04,09,55,14.80
2012,07,04,09,56,14.80
2012,07,04,09,57,14.90
2012,07,04,09,58,15.00
2012,07,04,09,59,15.00
2012,07,04,10,00,15.00
2012,07,04,10,01,15.00
2012,07,04,10,02,15.10
2012,07,04,10,03,15.10
2012,07,04,10,04,15.00
2012,07,04,10,05,15.00
2012,07,04,10,06,15.00
2012,07,04,10,07,15.00
2012,07,04,10,08,15.00
2012,07,04,10,09,14.90
2012,07,04,10,10,14.80
2012,07,04,10,11,14.70
2012,07,04,10,12,14.60
2012,07,04,10,13,14.60
2012,07,04,10,14,14.60
2012,07,04,10,15,14.70
2012,07,04,10,16,14.70
2012,07,04,10,17,14.80
2012,07,04,10,18,14.80
2012,07,04,10,19,14.80
2012,07,04,10,20,14.80
2012,07,04,10,21,14.90
2012,07,04,10,22,14.90
2012,07,04,10,23,15.00
2012,07,04,10,24,15.00
2012,07,04,10,25,15.00
2012,07,04,10,26,15.00
2012,07,04,10,27,15.10
2012,07,04,10,28,15.20
2012,07,04,10,29,15.20
2012,07,04,10,30,15.20
2012,07,04,10,31,15.20
2012,07,04,10,32,15.20
2012,07,04,10,33,15.20
2012,07,04,10,34,15.20
2012,07,04,10,35,15.20
2012,07,04,10,36,15.20
2012,07,04,10,37,15.00
2012,07,04,10,38,15.00
2012,07,04,10,39,15.00
2012,07,04,10,40,15.00
2012,07,04,10,41,14.90
2012,07,04,10,42,14.80
2012,07,04,10,43,14.80
2012,07,04,10,44,14.80
2012,07,04,10,45,14.70
2012,07,04,10,46,14.70
2012,07,04,10,47,14.70
2012,07,04,10,48,14.80
2012,07,04,10,49,15.00
2012,07,04,10,50,15.00
2012,07,04,10,51,15.10
2012,07,04,10,52,15.30
2012,07,04,10,53,15.40
2012,07,04,10,54,15.40
2012,07,04,10,55,15.50
2012,07,04,10,56,15.60
2012,07,04,10,57,15.60
2012,07,04,10,58,15.50
2012,07,04,10,59,15.50
2012,07,04,11,00,15.50
2012,07,04,11,01,15.60
2012,07,04,11,02,15.60
2012,07,04,11,03,15.50
2012,07,04,11,04,15.50
2012,07,04,11,05,15.40
2012,07,04,11,06,15.40
2012,07,04,11,07,15.50
2012,07,04,11,08,15.60
2012,07,04,11,09,15.70
2012,07,04,11,10,15.70
2012,07,04,11,11,15.70
2012,07,04,11,12,15.70
2012,07,04,11,13,15.80
2012,07,04,11,14,15.90
2012,07,04,11,15,15.90
2012,07,04,11,16,15.90
2012,07,04,11,17,15.90
2012,07,04,11,18,15.90
2012,07,04,11,19,15.90
2012,07,04,11,20,16.00
2012,07,04,11,21,16.00
2012,07,04,11,22,16.10
2012,07,04,11,23,16.10
2012,07,04,11,24,16.10
2012,07,04,11,25,16.20
2012,07,04,11,26,16.20
2012,07,04,11,27,16.30
2012,07,04,11,28,16.30
2012,07,04,11,29,16.30
2012,07,04,11,30,16.30
2012,07,04,11,31,16.30
2012,07,04,11,32,16.40
2012,07,04,11,33,16.60
2012,07,04,11,34,16.70
2012,07,04,11,35,16.80
2012,07,04,11,36,16.90
2012,07,04,11,37,16.90
2012,07,04,11,38,16.80
2012,07,04,11,39,16.70
2012,07,04,11,40,16.60
2012,07,04,11,41,16.50
2012,07,04,11,42,16.40
2012,07,04,11,43,16.30
2012,07,04,11,44,16.30
2012,07,04,11,45,16.20
2012,07,04,11,46,16.10
2012,07,04,11,47,15.90
2012,07,04,11,48,15.90
2012,07,04,11,49,15.80
2012,07,04,11,50,15.90
2012,07,04,11,51,15.90
2012,07,04,11,52,16.00
2012,07,04,11,53,16.10
2012,07,04,11,54,16.10
2012,07,04,11,55,16.20
2012,07,04,11,56,16.30
2012,07,04,11,57,16.40
2012,07,04,11,58,16.50
2012,07,04,11,59,16.60
2012,07,04,12,00,16.60
2012,07,04,12,01,16.70
2012,07,04,12,02,16.70
2012,07,04,12,03,16.80
2012,07,04,12,04,16.90
2012,07,04,12,05,16.90
2012,07,04,12,06,17.00
2012,07,04,12,07,17.00
2012,07,04,12,08,17.00
2012,07,04,12,09,16.90
2012,07,04,12,10,16.90
2012,07,04,12,11,16.80
2012,07,04,12,12,16.70
2012,07,04,12,13,16.70
2012,07,04,12,14,16.60
2012,07,04,12,15,16.50
2012,07,04,12,16,16.40
2012,07,04,12,17,16.40
2012,07,04,12,18,16.30
2012,07,04,12,19,16.30
2012,07,04,12,20,16.40
2012,07,04,12,21,16.40
2012,07,04,12,22,16.40
2012,07,04,12,23,16.40
2012,07,04,12,24,16.40
2012,07,04,12,25,16.30
2012,07,04,12,26,16.30
2012,07,04,12,27,16.40
2012,07,04,12,28,16.40
2012,07,04,12,29,16.40
2012,07,04,12,30,16.40
2012,07,04,12,31,16.30
2012,07,04,12,32,16.20
2012,07,04,12,33,16.10
2012,07,04,12,34,16.00
2012,07,04,12,35,15.90
2012,07,04,12,36,16.00
2012,07,04,12,37,16.10
2012,07,04,12,38,16.20
2012,07,04,12,39,16.30
2012,07,04,12,40,16.50
2012,07,04,12,41,16.60
2012,07,04,12,42,16.70
2012,07,04,12,43,16.70
2012,07,04,12,44,16.70
2012,07,04,12,45,16.70
2012,07,04,12,46,16.70
2012,07,04,12,47,16.60
2012,07,04,12,48,16.50
2012,07,04,12,49,16.50
2012,07,04,12,50,16.40
2012,07,04,12,51,16.40
2012,07,04,12,52,16.40
2012,07,04,12,53,16.40
2012,07,04,12,54,16.40
2012,07,04,12,55,16.60
2012,07,04,12,56,16.80
2012,07,04,12,57,16.90
2012,07,04,12,58,16.90
2012,07,04,12,59,17.00
2012,07,04,13,00,17.00
2012,07,04,13,01,17.10
2012,07,04,13,02,17.20
2012,07,04,13,03,17.20
2012,07,04,13,04,17.30
2012,07,04,13,05,17.40
2012,07,04,13,06,17.50
2012,07,04,13,07,17.50
2012,07,04,13,08,17.50
2012,07,04,13,09,17.50
2012,07,04,13,10,17.50
2012,07,04,13,11,17.60
2012,07,04,13,12,17.60
2012,07,04,13,13,17.50
2012,07,04,13,14,17.50
2012,07,04,13,15,17.60
2012,07,04,13,16,17.60
2012,07,04,13,17,17.50
2012,07,04,13,18,17.40
2012,07,04,13,19,17.30
2012,07,04,13,20,17.20
2012,07,04,13,21,17.20
2012,07,04,13,22,17.30
2012,07,04,13,23,17.40
2012,07,04,13,24,17.30
2012,07,04,13,25,17.00
2012,07,04,13,26,16.80
2012,07,04,13,27,16.70
2012,07,04,13,28,16.70
2012,07,04,13,29,16.60
2012,07,04,13,30,16.50
2012,07,04,13,31,16.50
2012,07,04,13,32,16.40
2012,07,04,13,33,16.40
2012,07,04,13,34,16.30
2012,07,04,13,35,16.30
2012,07,04,13,36,16.30
2012,07,04,13,37,16.30
2012,07,04,13,38,16.40
2012,07,04,13,39,16.40
2012,07,04,13,40,16.40
2012,07,04,13,41,16.40
2012,07,04,13,42,16.50
2012,07,04,13,43,16.50
2012,07,04,13,44,16.50
2012,07,04,13,45,16.40
2012,07,04,13,46,16.40
2012,07,04,13,47,16.40
2012,07,04,13,48,16.50
2012,07,04,13,49,16.50
2012,07,04,13,50,16.50
2012,07,04,13,51,16.50
2012,07,04,13,52,16.60
2012,07,04,13,53,16.60
2012,07,04,13,54,16.70
2012,07,04,13,55,16.70
2012,07,04,13,56,16.70
2012,07,04,13,57,16.70
2012,07,04,13,58,16.70
2012,07,04,13,59,16.80
2012,07,04,14,00,16.80
2012,07,04,14,01,16.90
2012,07,04,14,02,16.90
2012,07,04,14,03,17.10
2012,07,04,14,04,17.30
2012,07,04,14,05,17.40
2012,07,04,14,06,17.50
2012,07,04,14,07,17.70
2012,07,04,14,08,17.70
2012,07,04,14,09,17.70
2012,07,04,14,10,17.70
2012,07,04,14,11,17.70
2012,07,04,14,12,17.70
2012,07,04,14,13,17.70
2012,07,04,14,14,17.70
2012,07,04,14,15,17.60
2012,07,04,14,16,17.60
2012,07,04,14,17,17.70
2012,07,04,14,18,17.70
2012,07,04,14,19,17.80
2012,07,04,14,20,17.90
2012,07,04,14,21,18.00
2012,07,04,14,22,18.00
2012,07,04,14,23,17.90
2012,07,04,14,24,17.90
2012,07,04,14,25,17.80
2012,07,04,14,26,17.80
2012,07,04,14,27,17.80
2012,07,04,14,28,17.80
2012,07,04,14,29,17.70
2012,07,04,14,30,17.80
2012,07,04,14,31,17.80
2012,07,04,14,32,17.80
2012,07,04,14,33,17.80
2012,07,04,14,34,17.80
2012,07,04,14,35,17.90
2012,07,04,14,36,17.90
2012,07,04,14,37,18.00
2012,07,04,14,38,18.10
2012,07,04,14,39,18.10
2012,07,04,14,40,18.20
2012,07,04,14,41,18.30
2012,07,04,14,42,18.40
2012,07,04,14,43,18.50
2012,07,04,14,44,18.50
2012,07,04,14,45,18.60
2012,07,04,14,46,18.50
2012,07,04,14,47,18.30
2012,07,04,14,48,18.10
2012,07,04,18,15,17.00
2012,07,04,18,16,17.00
2012,07,04,18,17,17.00
2012,07,04,18,18,17.00
2012,07,04,18,19,17.10
2012,07,04,18,20,17.10
2012,07,04,18,21,17.10
2012,07,04,18,22,17.10
2012,07,04,18,23,17.20
2012,07,04,18,24,17.20
2012,07,04,18,25,17.20
2012,07,04,18,26,17.20
2012,07,04,18,27,17.20
2012,07,04,18,28,17.20
2012,07,04,18,29,17.30
2012,07,04,18,30,17.30
2012,07,04,18,31,17.20
2012,07,04,18,32,17.20
2012,07,04,18,33,17.20
2012,07,04,18,34,17.20
2012,07,04,18,35,17.20
2012,07,04,18,36,17.20
2012,07,04,18,37,17.20
2012,07,04,18,38,17.20
2012,07,04,18,39,17.20
2012,07,04,18,40,17.20
2012,07,04,18,41,17.20
2012,07,04,18,42,17.20
2012,07,04,18,43,17.30
2012,07,04,18,44,17.30
2012,07,04,18,45,17.20
2012,07,04,18,46,17.20
2012,07,04,18,47,17.20
2012,07,04,18,48,17.10
2012,07,04,18,49,17.10
2012,07,04,18,50,17.10
2012,07,04,18,51,17.10
2012,07,04,18,52,17.10
2012,07,04,18,53,17.10
2012,07,04,18,54,17.00
2012,07,04,18,55,17.10
2012,07,04,18,56,17.00
2012,07,04,18,57,17.00
2012,07,04,18,58,17.00
2012,07,04,18,59,17.00
2012,07,04,19,00,17.00
2012,07,04,19,01,16.90
2012,07,04,19,02,16.90
2012,07,04,19,03,16.90
2012,07,04,19,04,17.00
2012,07,04,19,05,17.00
2012,07,04,19,06,17.10
2012,07,04,19,07,17.10
2012,07,04,19,08,17.10
2012,07,04,19,09,17.10
2012,07,04,19,10,17.10
2012,07,04,19,11,17.00
2012,07,04,19,12,16.90
2012,07,04,19,13,16.80
2012,07,04,19,14,16.80
2012,07,04,19,15,16.80
2012,07,04,19,16,16.70
2012,07,04,19,17,16.70
2012,07,04,19,18,16.60
2012,07,04,19,19,16.60
2012,07,04,19,20,16.50
2012,07,04,19,21,16.50
2012,07,04,19,22,16.50
2012,07,04,19,23,16.40
2012,07,04,19,24,16.40
2012,07,04,19,25,16.40
2012,07,04,19,26,16.30
2012,07,04,19,27,16.30
2012,07,04,19,28,16.20
2012,07,04,19,29,16.20
2012,07,04,19,30,16.20
2012,07,04,19,31,16.20
2012,07,04,19,32,16.20
2012,07,04,19,33,16.20
2012,07,04,19,34,16.20
2012,07,04,19,35,16.20
2012,07,04,19,36,16.10
2012,07,04,19,37,16.10
2012,07,04,19,38,16.10
2012,07,04,19,39,16.00
2012,07,04,19,40,16.00
2012,07,04,19,41,15.90
2012,07,04,19,42,15.90
2012,07,04,19,43,15.90
2012,07,04,19,44,15.80
2012,07,04,19,45,15.80
2012,07,04,19,46,15.70
2012,07,04,19,47,15.60
2012,07,04,19,48,15.60
2012,07,04,19,49,15.50
2012,07,04,19,50,15.40
2012,07,04,19,51,15.30
2012,07,04,19,52,15.30
2012,07,04,19,53,15.20
2012,07,04,19,54,15.10
2012,07,04,19,55,15.00
2012,07,04,19,56,15.00
2012,07,04,19,57,15.00
2012,07,04,19,58,15.00
2012,07,04,19,59,14.80
2012,07,04,20,00,14.70
2012,07,04,20,01,14.70
2012,07,04,20,02,14.60
2012,07,04,20,03,14.50
2012,07,04,20,04,14.40
2012,07,04,20,05,14.30
2012,07,04,20,06,14.30
2012,07,04,20,07,14.20
2012,07,04,20,08,14.10
2012,07,04,20,09,14.00
2012,07,04,20,10,14.00
2012,07,04,20,11,13.90
2012,07,04,20,12,13.80
2012,07,04,20,13,13.80
2012,07,04,20,14,13.70
2012,07,04,20,15,13.60
2012,07,04,20,16,13.60
2012,07,04,20,17,13.50
2012,07,04,20,18,13.40
2012,07,04,20,19,13.40
2012,07,04,20,20,13.30
2012,07,04,20,21,13.30
2012,07,04,20,22,13.20
2012,07,04,20,23,13.20
2012,07,04,20,24,13.10
2012,07,04,20,25,13.10
2012,07,04,20,26,13.00
2012,07,04,20,27,12.90
2012,07,04,20,28,12.90
2012,07,04,20,29,12.90
2012,07,04,20,30,12.80
2012,07,04,20,31,12.80
2012,07,04,20,32,12.70
2012,07,04,20,33,12.70
2012,07,04,20,34,12.60
2012,07,04,20,35,12.50
2012,07,04,20,36,12.40
2012,07,04,20,37,12.40
2012,07,04,20,38,12.40
2012,07,04,20,39,12.30
2012,07,04,20,40,12.30
2012,07,04,20,41,12.20
2012,07,04,20,42,12.20
2012,07,04,20,43,12.10
2012,07,04,20,44,12.10
2012,07,04,20,45,12.00
2012,07,04,20,46,12.00
2012,07,04,20,47,11.90
2012,07,04,20,48,11.90
2012,07,04,20,49,11.80
2012,07,04,20,50,11.70
2012,07,04,20,51,11.70
2012,07,04,20,52,11.60
2012,07,04,20,53,11.60
2012,07,04,20,54,11.60
2012,07,04,20,55,11.50
2012,07,04,20,56,11.40
2012,07,04,20,57,11.40
2012,07,04,20,58,11.30
2012,07,04,20,59,11.30
2012,07,04,21,00,11.30
2012,07,04,21,01,11.20
2012,07,04,21,02,11.20
2012,07,04,21,03,11.10
2012,07,04,21,04,11.10
2012,07,04,21,05,11.10
2012,07,04,21,06,11.00